Location: Newark
(55.7083°N, 13.1992°E)
Time: 09:11:47
(UTC+00:00)

Transit 4A - Pass Details

Date: 22 February 2020
Orbit: 871 x 973 km, 66.8° (Epoch: 07 April)

Event Time Altitude Azimuth Distance (km) Brightness Sun altitude
Exits shadow 05:13:25 - 311° (NW) 2,951 10.0 -9.6°
Reaches altitude 10° 05:14:39 10° 316° (NW) 2,531 9.7 -9.4°
Maximum altitude 05:19:58 35° 22° (NNE) 1,379 9.0 -8.7°
Drops below altitude 10° 05:25:20 10° 88° (E) 2,542 11.8 -7.9°
Sets 05:28:03 0° 97° (E) 3,490 13.6 -7.5°
